Flag for U.S.A. Weather past 2 weeks in Boise, Idaho, U.S.A.

Now
86 °F

Clear.


Feels Like: 84 °F
Forecast: 74 / 100 °F
Wind: 3 mph from Southeast

Location: Boise Air Terminal

Current Time: Jun 30, 2015 at 2:45:39 AM

Latest Report: Jun 30, 2015 at 1:53 AM


Visibility: 10 mi

Pressure: 29.83 "Hg

Humidity: 33%

Dew point: 54 °F

Location of BoiseLocation

Historic Weather in Boise — Graph

°F

Boise temperature yesterday

Maximum temperature yesterday: 102 °F (at 2:53 PM)
Minimum temperature yesterday: 79 °F (at 5:53 AM)
Average temperature yesterday: 90 °F

Past Weeks' High & Low Weather Summary

 TemperatureHumidityPressure
High108 °F (Jun 28, 3:53 PM)65% (Jun 22, 4:53 AM)30.06 "Hg (Jun 22, 4:53 AM)
Low56 °F (Jun 15, 5:53 AM)10% (Jun 27, 6:53 PM)29.67 "Hg (Jun 15, 6:53 PM)
Average80 °F29%29.86 "Hg
* Reported Jun 15 12:53 AM — Jun 30 12:53 AM, Boise, Weather by CustomWeather, © 2015

Note: Actual official high and low records may vary slightly from our data, if they occured in-between our weather recording intervals... More about our weather records

Advertising

Boise weather history for previous 24 hours

 ConditionsComfort  
Time TempWeatherWind HumidityBarometerVisibility
12:53 AM
Tue, Jun 30
87 °FClear.14 mph32%29.82 "Hg10 mi
11:53 PM
Mon, Jun 29
87 °FClear.No wind31%29.81 "Hg10 mi
10:53 PM89 °FSunny.No wind30%29.80 "Hg10 mi
9:53 PM91 °FSunny.No wind28%29.78 "Hg10 mi
8:53 PM94 °FSunny.No wind26%29.76 "Hg10 mi
7:53 PM95 °FSunny.8 mph23%29.75 "Hg10 mi
6:53 PM99 °FSunny.12 mph20%29.75 "Hg10 mi
5:53 PM101 °FSunny.12 mph19%29.76 "Hg10 mi
4:53 PM99 °FSunny.12 mph21%29.78 "Hg10 mi
3:53 PM99 °FSunny.13 mph21%29.79 "Hg10 mi
2:53 PM102 °FSunny.12 mph21%29.81 "Hg10 mi
1:53 PM97 °FSunny.10 mph25%29.83 "Hg10 mi
12:53 PM95 °FSunny.8 mph27%29.84 "Hg10 mi
11:53 AM93 °FSunny.8 mph27%29.85 "Hg10 mi
10:53 AM90 °FSunny.3 mph31%29.86 "Hg10 mi
9:53 AM84 °FSunny.No wind35%29.88 "Hg10 mi
8:53 AM83 °FSunny.6 mph37%29.88 "Hg10 mi
7:53 AM82 °FClear.3 mph38%29.85 "Hg10 mi
6:53 AM80 °FClear.No wind39%29.83 "Hg10 mi
5:53 AM79 °FClear.No wind41%29.82 "Hg10 mi
4:53 AM85 °FClear.6 mph31%29.80 "Hg10 mi
3:53 AM86 °FClear.9 mph30%29.80 "Hg10 mi
2:53 AM85 °FClear.8 mph34%29.81 "Hg10 mi
Weather by CustomWeather, © 2015

See weather overviewHow to use our weather pages